Location: Ahausen
(50.4985°N, 8.2722°E)
Time: 18:23:10
(UTC+00:00)

Okean-O - Pass Details

Date: 18 September 2020
Orbit: 639 x 641 km, 98.2° (Epoch: 22 October)

Event Time Altitude Azimuth Distance (km) Brightness Sun altitude
Rises 18:06:46 0° 177° (S) 2,935 5.9 -6.1°
Reaches altitude 10° 18:09:00 10° 182° (S) 2,030 5.1 -6.5°
Maximum altitude 18:13:19 52° 259° (W) 799 3.6 -7.2°
Drops below altitude 10° 18:17:41 10° 337° (NNW) 2,046 5.7 -7.8°
Sets 18:19:57 0° 342° (NNW) 2,961 6.5 -8.2°
